Wind_Speed
16 12 10 9 10 10 6 9 13 13 19 21 12 13 18 11 9 15 11 8 5 5 4 7 5 4 3 2 3 5 6 6 5 6 7 7 13 10 11 11 12 13 15 14
16 10 15 12 11 12 10 11 10 15 9 15 8 8 9 19 10 15 19 13 3 1 4 4 6 2 2 1 0 3 6 6 6 6 7 8 8 8 7 7 6 14 15 12
15 14 17 14 12 11 12 11 13 15 12 19 17 10 10 7 17 17 23 16 3 1 1 3 4 5 0 1 2 1 5 7 7 7 8 9 11 10 8 7 8 11 12 12
11 15 13 10 9 13 13 13 16 12 15 13 15 14 12 12 15 22 24 14 13 9 3 3 3 3 3 0 3 5 3 7 9 9 9 10 10 11 10 9 8 12 15 15
10 12 11 9 8 13 12 15 17 16 16 15 13 16 5 7 14 19 25 28 23 13 6 3 3 2 3 4 2 4 3 6 9 11 11 10 11 12 11 11 12 12 16 17
8 7 7 4 8 13 13 15 14 15 13 7 16 14 1 2 14 16 23 30 31 30 10 8 5 4 2 3 3 0 3 5 9 10 11 11 12 13 13 13 15 15 15 19
10 8 8 9 11 13 16 15 15 14 7 3 14 16 14 7 10 17 29 31 29 25 22 10 8 7 2 0 4 3 4 3 6 10 11 11 11 13 14 15 16 16 16 17
16 13 10 15 16 15 20 19 19 13 9 8 4 8 10 13 19 22 25 25 23 22 23 18 6 8 6 2 4 7 3 6 5 6 7 9 11 12 12 14 16 16 15 16
18 15 12 13 25 14 15 16 12 13 16 14 14 9 10 16 13 20 22 25 23 18 24 25 15 7 9 3 3 8 6 7 7 6 9 9 9 11 12 13 14 15 15 14
15 18 19 12 22 17 11 13 15 10 8 6 8 13 14 16 18 19 23 25 28 28 29 28 21 11 11 6 1 7 5 5 7 10 10 10 10 10 11 12 13 13 13 14
14 22 19 19 21 19 18 14 15 15 15 14 9 7 13 17 22 20 21 28 25 24 26 25 17 19 12 9 5 7 7 5 6 9 10 11 10 11 11 13 13 15 15 15
29 24 27 26 18 14 17 14 13 14 9 18 18 16 12 16 25 18 15 13 19 21 20 18 20 22 17 12 9 10 11 9 6 6 9 11 10 10 10 12 14 14 16 16
29 33 28 26 28 23 20 19 18 17 17 19 15 18 17 26 15 10 12 12 19 22 18 20 24 22 20 14 11 10 12 10 8 8 9 9 13 13 12 11 13 14 16 17
38 37 36 32 26 22 21 34 29 23 23 22 24 14 27 29 44 22 25 22 21 22 25 24 20 18 20 16 11 8 10 10 9 8 10 11 14 18 14 11 11 14 17 18
44 48 45 44 40 29 34 33 24 31 33 32 24 27 26 32 32 28 16 22 23 27 28 19 15 15 19 17 15 12 8 9 9 10 11 12 11 12 13 12 12 14 17 19
47 48 48 47 40 40 42 40 37 27 24 26 26 38 36 36 35 39 41 34 33 38 29 15 17 16 19 20 16 14 14 13 13 12 13 12 14 15 15 15 13 13 15 18
50 48 48 48 43 41 49 44 45 44 34 33 37 33 41 43 44 47 46 39 38 37 39 29 27 27 25 23 20 15 16 16 15 14 12 11 12 12 12 14 15 15 18 18
41 46 45 47 46 46 40 41 48 54 54 47 46 45 44 43 48 51 54 56 55 50 46 44 38 35 28 24 20 20 19 17 16 16 16 16 16 15 14 15 14 14 15 17
41 46 50 52 51 50 45 38 39 45 48 53 55 58 55 57 55 54 52 52 52 55 55 54 50 45 32 26 24 23 23 23 23 22 21 20 20 19 18 19 18 19 20 21
42 46 50 52 54 55 51 46 41 50 54 51 53 52 50 42 51 51 49 45 49 49 46 40 35 35 31 25 27 27 26 24 22 22 22 23 22 20 18 17 18 18 21 23
39 42 45 49 52 53 52 50 48 51 48 46 51 55 55 58 58 59 56 54 49 46 46 39 37 35 32 29 28 29 29 27 25 25 25 24 23 22 21 20 20 23 23 24
33 37 37 32 36 39 43 42 44 47 50 50 48 50 57 56 54 54 53 50 46 45 41 52 47 43 43 38 33 31 30 29 29 31 27 26 22 24 24 25 24 26 27 25
36 38 37 36 42 43 32 35 49 44 40 43 46 51 58 52 50 52 51 46 45 42 39 42 43 43 43 42 38 35 34 35 32 29 30 26 25 24 24 25 25 25 29 31
34 37 38 39 44 48 48 52 48 45 44 46 46 51 56 55 53 53 50 50 49 48 47 45 50 48 44 44 42 41 41 40 35 32 32 29 25 24 24 23 22 25 31 30
36 38 38 37 41 46 46 47 51 51 48 49 50 49 43 49 53 47 48 54 60 53 49 48 52 50 49 48 43 42 38 34 33 34 32 27 26 24 26 25 23 26 30 34
30 37 41 43 44 44 41 43 41 42 45 47 51 53 49 53 51 48 44 40 51 52 44 48 52 55 54 55 53 47 41 37 36 35 32 30 30 28 26 26 25 26 27 24
Wind_Direction
279 288 283 267 253 263 181 168 242 255 294 314 340 337 328 351 35 6 17 358 346 344 41 45 71 78 28 87 201 169 179 167 165 150 140 73 136 142 170 186 201 204 210 206
274 283 261 254 249 252 215 214 265 260 285 312 338 322 346 331 41 20 354 350 327 277 358 36 42 92 114 344 241 198 195 202 179 169 144 140 150 158 171 174 181 200 205 214
264 250 255 257 247 256 251 259 267 275 265 278 302 273 288 317 342 5 2 329 27 93 23 332 66 20 13 254 309 295 191 210 190 188 169 163 156 156 167 178 178 187 207 215
249 251 251 259 236 251 254 255 266 278 294 295 291 313 314 317 345 343 338 350 356 30 51 294 318 73 354 205 206 272 241 193 198 199 191 187 183 192 199 196 201 221 222 225
235 233 256 257 257 255 253 255 264 275 295 326 342 319 295 326 312 319 312 325 337 6 40 29 281 319 15 355 293 201 228 239 209 195 197 198 200 202 200 211 206 206 210 220
243 235 247 258 255 263 268 270 275 278 296 40 7 13 220 174 271 274 306 319 328 329 347 26 352 280 103 8 332 230 218 207 222 212 197 201 206 210 207 210 208 204 208 218
242 256 268 276 273 270 270 268 267 269 273 33 25 314 333 309 300 300 312 312 312 313 322 18 1 324 233 164 321 284 262 242 224 206 202 195 204 214 216 215 216 213 215 215
266 246 252 294 269 274 264 258 259 258 204 260 85 282 304 294 302 303 297 308 314 314 314 320 1 336 308 209 294 291 293 273 262 253 215 201 199 209 213 216 205 207 217 222
268 260 233 261 276 272 259 259 257 249 215 223 197 204 286 300 270 259 279 311 319 323 312 313 319 325 296 313 289 267 255 257 248 251 245 227 211 202 207 210 205 199 204 207
244 229 237 285 294 286 275 245 239 232 253 242 226 236 247 268 270 289 279 292 296 307 311 309 308 300 282 298 331 248 230 244 244 224 237 233 221 211 205 205 210 209 205 205
250 226 216 193 253 277 291 250 250 259 235 226 219 253 269 279 271 257 273 287 298 306 306 309 296 286 275 264 264 254 248 241 235 240 229 238 228 214 209 212 217 222 221 212
266 266 232 231 218 268 285 284 243 229 201 236 243 218 248 267 278 284 291 284 272 267 295 303 305 286 279 266 260 254 260 249 231 234 225 227 233 225 230 229 230 233 238 236
246 249 253 244 214 207 248 280 285 270 243 244 251 162 273 256 257 234 247 245 247 246 264 290 297 287 270 257 260 252 246 236 222 226 234 230 214 221 232 243 248 248 242 242
233 240 247 251 240 221 222 228 244 246 246 247 224 204 256 247 257 257 259 245 252 261 269 293 284 276 262 247 237 237 221 213 207 226 230 233 235 232 233 250 249 254 257 259
234 240 245 249 249 241 215 234 203 216 232 230 227 215 256 266 259 265 247 241 252 266 279 291 293 274 261 244 238 223 213 209 213 217 221 219 221 224 237 251 249 253 260 259
243 244 250 255 251 239 233 230 227 222 234 232 227 218 231 241 248 264 255 243 259 266 257 253 270 305 285 250 244 233 232 214 222 227 220 220 225 228 238 243 256 257 255 264
262 262 260 259 257 246 240 238 241 234 226 236 237 228 225 239 244 251 253 253 253 259 268 255 267 283 283 260 244 231 226 216 214 231 233 236 237 249 258 259 262 265 271 271
259 264 263 263 261 254 254 243 236 239 237 235 239 239 237 242 241 243 250 254 255 257 257 263 263 271 277 255 239 230 232 229 232 239 244 250 253 255 257 260 271 275 284 280
252 253 258 260 262 264 260 255 245 236 233 241 242 244 251 245 250 253 251 248 254 255 259 261 268 268 265 249 239 225 233 238 245 250 249 254 257 257 262 268 275 281 283 284
249 249 248 254 256 260 261 259 251 243 246 240 242 243 238 232 240 251 254 251 259 261 256 256 254 256 255 243 239 233 236 243 243 246 251 255 261 264 269 276 284 289 286 277
254 251 250 252 253 258 261 258 254 244 255 242 241 242 245 246 250 254 253 260 266 259 258 250 245 242 251 246 240 238 237 241 249 253 258 269 279 283 286 288 288 292 293 288
248 241 236 245 254 255 257 255 245 249 254 244 241 242 245 243 247 250 254 260 261 259 265 241 243 251 247 245 242 241 243 245 249 254 260 270 276 285 282 283 285 291 294 288
250 246 241 246 248 245 252 257 244 247 254 256 255 250 249 246 244 246 249 246 250 256 250 242 245 249 245 244 241 240 241 242 248 254 260 263 281 278 276 283 292 295 297 294
250 241 246 254 243 249 254 252 264 268 259 255 252 252 253 252 249 253 254 253 246 247 249 248 246 239 239 233 232 233 238 241 246 251 255 265 271 274 279 284 288 292 294 297
251 255 259 259 257 253 254 251 252 253 251 249 255 254 251 257 253 252 244 245 247 245 244 242 241 238 231 230 229 229 230 234 234 242 253 262 267 272 275 284 282 294 303 311
262 259 256 256 253 254 257 259 263 261 261 256 255 252 252 252 250 257 255 237 233 231 232 237 238 234 230 225 222 220 228 232 240 249 255 259 263 269 276 279 278 290 305 311
Height
5909 5911 5911 5912 5912 5910 5911 5914 5916 5915 5911 5910 5911 5909 5904 5907 5907 5904 5904 5906 5904 5903 5903 5903 5902 5900 5901 5902 5904 5906 5907 5908 5909 5911 5913 5913 5915 5919 5922 5925 5928 5930 5932 5936
5907 5909 5907 5908 5910 5909 5909 5911 5914 5914 5913 5910 5909 5909 5907 5902 5906 5906 5903 5904 5905 5902 5900 5900 5901 5901 5901 5901 5903 5903 5905 5906 5908 5910 5911 5913 5916 5919 5922 5923 5925 5929 5931 5933
5904 5905 5903 5905 5905 5907 5908 5908 5909 5910 5910 5907 5907 5906 5905 5905 5903 5904 5907 5903 5904 5903 5902 5899 5901 5901 5901 5901 5901 5902 5904 5904 5906 5908 5911 5914 5916 5919 5920 5922 5925 5926 5930 5931
5900 5899 5900 5902 5902 5904 5905 5905 5906 5906 5907 5907 5906 5905 5904 5901 5900 5900 5903 5905 5902 5903 5903 5901 5899 5902 5901 5901 5903 5901 5902 5903 5905 5907 5909 5912 5914 5917 5920 5922 5924 5927 5928 5928
5897 5897 5897 5899 5901 5901 5903 5903 5903 5904 5904 5905 5906 5902 5902 5897 5897 5899 5900 5899 5900 5901 5903 5901 5900 5900 5899 5900 5902 5904 5903 5904 5904 5905 5907 5909 5911 5914 5917 5920 5922 5924 5926 5927
5894 5894 5896 5897 5898 5899 5899 5900 5901 5902 5904 5906 5904 5903 5900 5898 5899 5900 5899 5898 5897 5897 5901 5901 5900 5900 5902 5901 5900 5902 5903 5904 5904 5904 5904 5906 5909 5911 5913 5915 5917 5919 5921 5923
5891 5892 5893 5894 5896 5897 5897 5897 5898 5900 5902 5900 5902 5901 5900 5897 5897 5899 5900 5899 5898 5896 5895 5900 5900 5899 5901 5901 5900 5900 5900 5901 5903 5904 5904 5904 5906 5908 5910 5911 5913 5916 5918 5919
5887 5889 5889 5892 5893 5894 5893 5894 5894 5896 5895 5896 5900 5899 5897 5890 5897 5899 5898 5896 5897 5895 5893 5894 5899 5898 5898 5899 5899 5899 5899 5900 5900 5901 5902 5902 5903 5904 5906 5908 5910 5912 5914 5916
5882 5883 5882 5885 5886 5889 5889 5889 5891 5891 5892 5893 5897 5898 5901 5901 5898 5897 5896 5895 5894 5894 5893 5893 5895 5897 5896 5897 5898 5898 5898 5898 5899 5900 5899 5900 5900 5902 5904 5906 5908 5909 5911 5913
5879 5879 5878 5882 5882 5883 5886 5887 5886 5888 5890 5892 5895 5897 5895 5892 5891 5892 5894 5894 5894 5892 5891 5890 5892 5894 5895 5894 5896 5895 5895 5896 5897 5897 5898 5898 5899 5900 5902 5904 5906 5907 5909 5911
5874 5875 5878 5877 5878 5881 5881 5883 5883 5885 5885 5886 5890 5894 5894 5894 5891 5891 5889 5890 5888 5888 5888 5888 5890 5890 5892 5892 5893 5894 5894 5895 5895 5895 5896 5897 5898 5900 5901 5902 5903 5904 5907 5909
5870 5870 5871 5874 5876 5877 5878 5878 5881 5881 5885 5887 5889 5891 5890 5889 5887 5885 5885 5886 5884 5884 5886 5888 5886 5887 5888 5889 5890 5891 5892 5893 5892 5894 5895 5896 5897 5898 5899 5900 5901 5903 5904 5906
5865 5863 5864 5866 5871 5872 5874 5876 5877 5878 5880 5882 5884 5888 5888 5881 5878 5879 5878 5879 5879 5881 5882 5882 5881 5882 5885 5886 5886 5887 5888 5889 5890 5891 5893 5894 5894 5895 5896 5897 5898 5900 5901 5902
5855 5856 5857 5858 5863 5868 5867 5865 5869 5873 5874 5876 5879 5883 5875 5879 5871 5871 5871 5873 5874 5873 5874 5876 5877 5877 5881 5882 5883 5883 5884 5885 5887 5888 5889 5890 5891 5892 5895 5896 5896 5897 5898 5899
5845 5844 5848 5850 5854 5859 5856 5856 5859 5859 5864 5866 5872 5874 5871 5865 5865 5866 5867 5866 5866 5865 5868 5871 5872 5873 5876 5878 5879 5880 5882 5882 5884 5886 5886 5887 5888 5890 5891 5892 5893 5894 5895 5896
5831 5832 5835 5836 5843 5847 5849 5848 5852 5853 5854 5857 5857 5863 5864 5865 5861 5859 5861 5859 5859 5860 5864 5867 5867 5871 5873 5874 5874 5877 5878 5880 5881 5882 5883 5885 5886 5887 5888 5888 5889 5890 5891 5891
5820 5822 5824 5825 5830 5833 5833 5842 5845 5846 5845 5846 5847 5848 5853 5853 5853 5851 5850 5852 5853 5854 5853 5860 5863 5866 5868 5869 5870 5872 5874 5875 5877 5878 5879 5881 5882 5883 5884 5884 5885 5886 5886 5887
5812 5809 5810 5811 5815 5816 5826 5831 5832 5832 5835 5834 5834 5835 5838 5838 5842 5842 5842 5845 5846 5848 5849 5848 5855 5859 5863 5863 5865 5866 5869 5871 5873 5874 5875 5876 5877 5878 5879 5879 5880 5880 5881 5880
5801 5802 5798 5797 5800 5804 5811 5818 5818 5814 5818 5820 5822 5824 5828 5825 5827 5828 5831 5834 5837 5840 5842 5842 5848 5851 5857 5858 5860 5861 5863 5865 5867 5869 5870 5871 5872 5873 5873 5874 5874 5874 5874 5875
5786 5785 5785 5787 5787 5788 5796 5802 5805 5794 5798 5806 5807 5808 5812 5812 5815 5818 5820 5825 5828 5833 5836 5838 5840 5842 5847 5850 5853 5855 5857 5858 5861 5862 5864 5865 5867 5868 5869 5869 5868 5869 5868 5867
5770 5771 5770 5772 5773 5778 5779 5781 5783 5779 5789 5792 5793 5793 5798 5802 5804 5807 5812 5815 5818 5822 5828 5833 5832 5834 5839 5841 5845 5847 5849 5852 5854 5856 5857 5858 5860 5860 5861 5861 5861 5861 5860 5859
5758 5758 5760 5760 5760 5762 5762 5765 5766 5766 5770 5778 5777 5781 5784 5789 5791 5795 5799 5804 5807 5811 5811 5819 5824 5827 5829 5832 5835 5837 5841 5845 5847 5848 5850 5852 5853 5853 5853 5853 5853 5853 5851 5851
5748 5747 5748 5750 5751 5752 5752 5752 5752 5757 5762 5764 5765 5768 5772 5775 5775 5777 5783 5786 5792 5798 5803 5808 5812 5815 5821 5823 5826 5830 5832 5833 5836 5840 5841 5844 5846 5846 5846 5845 5844 5843 5842 5841
5736 5736 5736 5739 5741 5741 5741 5741 5741 5744 5746 5749 5752 5754 5755 5758 5766 5769 5770 5774 5777 5781 5788 5795 5798 5800 5808 5811 5815 5818 5821 5825 5826 5828 5833 5837 5837 5839 5838 5838 5838 5837 5834 5832
5725 5726 5728 5730 5729 5728 5730 5730 5729 5732 5735 5735 5735 5739 5741 5742 5745 5751 5756 5759 5764 5768 5774 5779 5782 5787 5793 5798 5803 5806 5811 5815 5816 5818 5823 5827 5829 5830 5830 5830 5830 5829 5826 5821
5718 5714 5713 5712 5714 5715 5718 5718 5719 5721 5720 5722 5723 5725 5726 5728 5731 5736 5741 5741 5748 5752 5759 5764 5766 5769 5770 5774 5783 5791 5800 5804 5808 5811 5813 5816 5820 5821 5822 5822 5822 5820 5819 5817